[[{"header":{"parameterUnit":"m.s-1","parameterCategory":2,"la1":30.2991,"la2":30.254,"lo1":-89.0895,"lo2":-89.0444,"dy":0.0017,"dx":0.0017,"nx":28,"ny":28,"refTime":"2024-04-17T21:00:00:Z","depth":"0","parameterNumber":2,"parameterNumberName":"U-component_of_CURRENTS"},"data":[0,0,0,0,0,0,0,0,0,0,0,0,0,0,0,0,0,0,0,0,0,0,0,0,0,0,0,0,0,0,0,0,0,0,0,0,0,0,0,0,0,0,0,0,0,0,0,0,0,0,0,0,0,0,0,0,0,0,0.1394,0.1394,0,0.1409,0.1409,0.1409,0.1407,0.1407,0.1407,0.1407,0.1371,0.137,0.1369,0,0,0,0,0,0,0,0,0,0,0,0,0,0.1337,0.1338,0.1394,0.1394,0.1395,0.1409,0.1409,0.1409,0.1407,0.1407,0.1407,0.1407,0.1372,0.1371,0.1369,0,0,0,0,0,0,0,0,0,0,0,0,0,0.1355,0.1339,0.1394,0.1398,0.1398,0.1409,0.1409,0.1409,0.1407,0.1407,0.1407,0.1407,0.1372,0.1371,0.1369,0.1359,0,0,0.1365,0.1364,0,0,0,0,0,0,0,0,0.1354,0.1357,0.1397,0.1397,0.1398,0.1409,0.1377,0.1391,0.1407,0.14,0.1407,0.1407,0.1381,0.1379,0.1378,0.1358,0.1356,0.1365,0.1364,0.1363,0.1363,0,0,0,0,0,0,0,0.1353,0.1356,0.1397,0.1397,0.1398,0.1391,0.1393,0.1379,0.1387,0.1401,0.1402,0.1408,0.1381,0.138,0.1377,0.1356,0.1365,0.1363,0.1362,0.1362,0.1327,0.1327,0,0,0,0,0,0,0.1359,0.1355,0.1396,0.1398,0.138,0.1392,0.1394,0.1403,0.1388,0.1387,0.1408,0.1408,0.1382,0.1379,0.1376,0.1419,0.1363,0.1362,0.1361,0.1327,0.1327,0.1327,0,0,0,0,0,0,0.1358,0.1363,0.1396,0.1379,0.1383,0.1393,0.1403,0.1403,0.1406,0.1395,0.1393,0.1411,0.1382,0.1378,0.1365,0.1415,0.1361,0.136,0.1327,0.1327,0.1327,0.1469,0,0,0,0,0,0,0.1356,0.1362,0.1368,0.138,0.1384,0.1402,0.1403,0.1404,0.1411,0.1411,0.1396,0.1393,0.1382,0.1367,0.1363,0.1412,0.1359,0.1327,0.1327,0.1327,0.1464,0.1473,0.1481,0,0,0,0,0,0.1354,0.1361,0.1368,0.1373,0.1393,0.1402,0.1404,0.1409,0.1412,0.1411,0.1402,0.1394,0.1364,0.1366,0.1361,0.1411,0.1327,0.1327,0.1327,0.146,0.1472,0.1481,0,0,0,0,0,0,0.1333,0.1362,0.137,0.1384,0.1394,0.1403,0.1407,0.1411,0.1405,0.1406,0.1392,0.1387,0.1394,0.1365,0.1368,0.1393,0.1345,0.1344,0.1447,0.1458,0.1466,0.1597,0.1357,0,0,0,0,0,0.1335,0.135,0.137,0.138,0.1388,0.1399,0.1404,0.141,0.1409,0.1407,0.1398,0.1386,0.1389,0.1393,0.1373,0.1389,0.1446,0.1412,0.1421,0.1429,0.1528,0.1636,0.1668,0.1327,0.1327,0.1327,0,0,0.1329,0.1348,0.1355,0.1377,0.1387,0.1435,0.1401,0.1413,0.1466,0.1403,0.1449,0.1409,0.1392,0.1414,0.1416,0.1403,0.1543,0.1429,0.1437,0.1534,0.164,0.1675,0.1706,0.1327,0.1327,0.1327,0,0,0.1363,0.1344,0.1393,0.1406,0.1433,0.1442,0.145,0.1462,0.1477,0.1497,0.1479,0.1495,0.1456,0.1501,0.1511,0.1556,0.1575,0.1501,0.1678,0.178,0.1812,0.1841,0.1923,0.1959,0.1521,0.1521,0.1521,0,0.1368,0.1439,0.1403,0.1462,0.1499,0.1458,0.1537,0.1541,0.1548,0.1591,0.1523,0.1565,0.1533,0.1648,0.1666,0.1594,0.1636,0.1645,0.1803,0.1833,0.1861,0.1938,0.1976,0.1528,0.1527,0.1526,0.1526,0,0.1471,0.1517,0.1538,0.1617,0.163,0.1676,0.169,0.1707,0.1701,0.1726,0.1792,0.1755,0.1802,0.177,0.1744,0.1916,0.1874,0.1795,0.1802,0.1906,0.1977,0.2014,0.1538,0.1535,0.1533,0.1531,0,0,0.1569,0.1611,0.1633,0.1676,0.1726,0.174,0.1828,0.1914,0.1977,0.1975,0.2091,0.2113,0.2091,0.2105,0.2057,0.2163,0.2361,0.2084,0.2086,0.2214,0.259,0.2562,0.2599,0.2304,0.2312,0.2318,0.255,0,0.1698,0.1803,0.1819,0.1928,0.1985,0.1981,0.2057,0.2107,0.2121,0.2191,0.2226,0.2271,0.2213,0.2216,0.2331,0.2326,0.2471,0.2308,0.2432,0.2438,0.2442,0.2647,0.2598,0.2803,0.2586,0.2593,0.2597,0,0.1859,0.1902,0.2018,0.2076,0.2106,0.2159,0.2259,0.2315,0.2406,0.242,0.2514,0.2492,0.2654,0.2546,0.2756,0.2643,0.2687,0.2696,0.2702,0.2685,0.2484,0.2665,0.2879,0.2789,0.2654,0.2649,0.2645,0,0.1948,0.2059,0.2141,0.2165,0.222,0.2285,0.2323,0.24,0.2436,0.2567,0.259,0.2758,0.2789,0.2923,0.2933,0.2864,0.3137,0.3014,0.3064,0.3058,0.3059,0.3042,0.3262,0.3258,0.3258,0.3257,0.3257,0,0.2085,0.2151,0.2174,0.2209,0.2301,0.2332,0.2425,0.2481,0.2562,0.2618,0.2698,0.2764,0.2887,0.3,0.3051,0.3187,0.3239,0.321,0.3168,0.3093,0.3077,0.3025,0.2931,0.3266,0.3264,0.3262,0.3261,0,0.2135,0.2169,0.224,0.2306,0.2329,0.2373,0.2424,0.2469,0.2555,0.2634,0.2679,0.2807,0.2969,0.3079,0.3267,0.3302,0.3361,0.3467,0.3366,0.3312,0.327,0.3182,0.329,0.3188,0.362,0.3622,0.3623,0,0.2145,0.2194,0.2258,0.227,0.2293,0.2349,0.2378,0.2461,0.2496,0.2639,0.2677,0.2859,0.2962,0.3238,0.3377,0.3561,0.3412,0.3612,0.3512,0.3383,0.3254,0.3059,0.2948,0.3544,0.3545,0.3545,0.3546,0,0.2148,0.2173,0.2204,0.2233,0.2262,0.2288,0.234,0.236,0.2462,0.2539,0.2646,0.2751,0.3034,0.3212,0.3459,0.3556,0.3449,0.3626,0.3547,0.3328,0.3086,0.2922,0.3237,0.355,0.3549,0.3549,0.3549,0.3549,0.211,0.2116,0.2143,0.2166,0.219,0.2192,0.2193,0.2254,0.2306,0.2402,0.2557,0.2709,0.3046,0.3388,0.3449,0.3576,0.3466,0.3555,0.3496,0.3338,0.316,0.3493,0.3698,0.3698,0.3698,0.3699,0.3699,0,0.2021,0.2036,0.2059,0.2068,0.2055,0.2104,0.213,0.2125,0.2154,0.2322,0.2429,0.2777,0.3007,0.3255,0.3526,0.3478,0.3302,0.3402,0.3141,0.3061,0.3452,0.3368,0.3444,0.3444,0.3444,0.3444,0.3445,0.3445,0.1967,0.195,0.197,0.192,0.1928,0.1888,0.1884,0.1913,0.201,0.2169,0.2368,0.2566,0.2973,0.3317,0.3399,0.3342,0.3063,0.2976,0.2878,0.3168,0.3176,0.3183,0.3088,0.3104,0.3104,0.2406,0.2401,0.2397]},{"header":{"parameterUnit":"m.s-1","parameterCategory":2,"la1":30.2991,"la2":30.254,"lo1":-89.0895,"lo2":-89.0444,"dy":0.0017,"dx":0.0017,"nx":28,"ny":28,"refTime":"2024-04-17T21:00:00:Z","depth":"0","parameterNumber":3,"parameterNumberName":"V-component_of_CURRENTS"},"data":[0,0,0,0,0,0,0,0,0,0,0,0,0,0,0,0,0,0,0,0,0,0,0,0,0,0,0,0,0,0,0,0,0,0,0,0,0,0,0,0,0,0,0,0,0,0,0,0,0,0,0,0,0,0,0,0,0,0,-0.0242,-0.0242,0,-0.0299,-0.03,-0.0301,-0.0334,-0.0334,-0.0334,-0.0334,-0.0389,-0.039,-0.0391,0,0,0,0,0,0,0,0,0,0,0,0,0,-0.0158,-0.0159,-0.0242,-0.0242,-0.0243,-0.0299,-0.03,-0.0301,-0.0334,-0.0334,-0.0334,-0.0334,-0.0388,-0.039,-0.0391,0,0,0,0,0,0,0,0,0,0,0,0,0,-0.0202,-0.016,-0.0241,-0.0267,-0.027,-0.0299,-0.03,-0.0301,-0.0334,-0.0334,-0.0334,-0.0334,-0.0388,-0.039,-0.0392,-0.0396,0,0,-0.0397,-0.0398,0,0,0,0,0,0,0,0,-0.0199,-0.0205,-0.0263,-0.0266,-0.0269,-0.0311,-0.0291,-0.0333,-0.0333,-0.0308,-0.0334,-0.0335,-0.0363,-0.0367,-0.0375,-0.0399,-0.0401,-0.0397,-0.0399,-0.0399,-0.04,0,0,0,0,0,0,0,-0.0196,-0.0202,-0.0263,-0.0263,-0.0267,-0.0275,-0.0282,-0.0299,-0.0332,-0.031,-0.0313,-0.0321,-0.0364,-0.0373,-0.0377,-0.0402,-0.0397,-0.0399,-0.04,-0.0401,-0.0431,-0.0431,0,0,0,0,0,0,-0.0191,-0.02,-0.0261,-0.0265,-0.0235,-0.0277,-0.0284,-0.0296,-0.0332,-0.0338,-0.0321,-0.0323,-0.037,-0.0375,-0.0379,-0.0348,-0.0399,-0.0401,-0.0402,-0.0431,-0.0431,-0.043,0,0,0,0,0,0,-0.0189,-0.0196,-0.0259,-0.0234,-0.0243,-0.0278,-0.0291,-0.0297,-0.0308,-0.034,-0.0346,-0.0326,-0.0371,-0.0376,-0.0399,-0.0351,-0.0402,-0.0404,-0.0432,-0.0431,-0.0431,-0.031,0,0,0,0,0,0,-0.0187,-0.0195,-0.0202,-0.0234,-0.0244,-0.027,-0.0291,-0.0298,-0.0313,-0.0315,-0.0347,-0.0352,-0.0371,-0.0396,-0.0401,-0.0355,-0.0405,-0.0432,-0.0431,-0.0431,-0.0314,-0.0305,-0.0298,0,0,0,0,0,-0.0184,-0.0186,-0.0202,-0.021,-0.0252,-0.0269,-0.0275,-0.03,-0.0312,-0.0312,-0.034,-0.0351,-0.0395,-0.0398,-0.0403,-0.0356,-0.0432,-0.0432,-0.0431,-0.0318,-0.0307,-0.0298,0,0,0,0,0,0,-0.0149,-0.0191,-0.0209,-0.0224,-0.0244,-0.0275,-0.0278,-0.0297,-0.0319,-0.0323,-0.0354,-0.0362,-0.0364,-0.0389,-0.0391,-0.0368,-0.0412,-0.0412,-0.0324,-0.0314,-0.0306,-0.0219,-0.0407,0,0,0,0,0,-0.0146,-0.0161,-0.0197,-0.0207,-0.0216,-0.0247,-0.0258,-0.0275,-0.03,-0.031,-0.0333,-0.0356,-0.0365,-0.0364,-0.0389,-0.0375,-0.0374,-0.0351,-0.0342,-0.0335,-0.0271,-0.0259,-0.0242,-0.0428,-0.0428,-0.0428,0,0,-0.0133,-0.016,-0.0167,-0.0201,-0.0218,-0.0188,-0.0254,-0.0265,-0.0228,-0.0312,-0.0282,-0.0337,-0.0362,-0.0349,-0.0349,-0.0359,-0.0288,-0.0334,-0.0327,-0.0266,-0.0256,-0.0237,-0.022,-0.0428,-0.0428,-0.0428,0,0,-0.0073,-0.0139,-0.0105,-0.0119,-0.0143,-0.0163,-0.0163,-0.0195,-0.0201,-0.02,-0.0241,-0.0259,-0.0289,-0.0276,-0.0276,-0.0236,-0.0257,-0.0265,-0.0129,-0.0119,-0.0102,-0.0086,-0.0079,-0.0064,-0.0244,-0.0244,-0.0243,0,-0.0042,-0.0011,-0.0097,-0.0056,-0.0043,-0.0137,-0.007,-0.0092,-0.0125,-0.011,-0.0175,-0.0187,-0.0231,-0.0159,-0.0151,-0.0205,-0.0214,-0.016,-0.0102,-0.0087,-0.0073,-0.0069,-0.0054,-0.0238,-0.0238,-0.0239,-0.024,0,0.007,0.0087,0.0102,0.0129,0.012,0.0146,0.011,0.0103,0.0063,0.0047,0.0063,-0.001,-0.0001,-0.0033,-0.0076,0.0007,-0.0039,-0.0104,-0.0113,-0.0046,-0.0048,-0.0034,-0.0229,-0.0231,-0.0233,-0.0235,0,0,0.0212,0.0191,0.0212,0.0233,0.0223,0.0221,0.0278,0.0307,0.0344,0.0287,0.0355,0.0317,0.0251,0.0249,0.0179,0.0192,0.0247,0.0099,0.0096,0.0134,0.0271,0.0208,0.0215,0.0181,0.0184,0.0187,0.0225,0,0.0359,0.044,0.0415,0.0508,0.0542,0.0483,0.0539,0.0533,0.0499,0.0517,0.0463,0.0465,0.0367,0.0349,0.0357,0.026,0.0292,0.0244,0.0179,0.0179,0.0137,0.0233,0.0188,0.0216,0.0238,0.0241,0.0242,0,0.0531,0.055,0.0652,0.0666,0.0684,0.0726,0.0767,0.0798,0.0797,0.0774,0.0778,0.0695,0.0718,0.0589,0.0559,0.0525,0.0441,0.0366,0.0363,0.0291,0.0143,0.0152,0.024,0.0019,0.0263,0.0261,0.026,0,0.0651,0.0732,0.0799,0.0808,0.0812,0.0862,0.0876,0.0883,0.0903,0.0928,0.0931,0.0928,0.0895,0.0831,0.0656,0.0614,0.0593,0.0504,0.0393,0.0386,0.0337,0.032,0.0238,0.0529,0.0529,0.0528,0.0528,0,0.0798,0.0854,0.0849,0.0871,0.0955,0.0944,0.1023,0.1034,0.1065,0.1103,0.1056,0.1079,0.0947,0.0884,0.075,0.0621,0.0671,0.0476,0.0416,0.037,0.0356,0.015,0.004,0.053,0.053,0.0529,0.0529,0,0.0863,0.088,0.0936,0.0971,0.0989,0.1028,0.1068,0.1121,0.1152,0.1207,0.122,0.1195,0.1136,0.0994,0.0866,0.0724,0.0492,0.0546,0.05,0.0436,0.0131,0.003,-0.0034,-0.0114,0.0474,0.0473,0.0472,0,0.0872,0.0913,0.0964,0.0997,0.1005,0.1061,0.1107,0.115,0.1202,0.1269,0.1309,0.1282,0.1269,0.1077,0.0838,0.0655,0.0467,0.0467,0.0396,0.0166,0.0008,-0.006,-0.0128,0.0367,0.0365,0.0364,0.0363,0,0.0879,0.0904,0.0929,0.1003,0.106,0.112,0.1193,0.1249,0.1318,0.1386,0.1458,0.1464,0.1285,0.1086,0.0816,0.065,0.0308,0.0433,0.0215,-0.003,-0.0123,-0.025,0.0276,0.0351,0.0352,0.0353,0.0354,0.0354,0.0864,0.0882,0.0937,0.1005,0.1079,0.1181,0.1244,0.1341,0.1444,0.1573,0.1569,0.1635,0.1316,0.0955,0.068,0.0163,0.0218,0.0004,-0.0082,-0.0115,-0.0236,0.0272,0.025,0.025,0.0251,0.0251,0.0252,0,0.0848,0.0885,0.0941,0.1036,0.1122,0.1168,0.1304,0.1391,0.1528,0.1674,0.1752,0.1671,0.1232,0.0797,0.0125,-0.0277,-0.0413,-0.0496,-0.0612,-0.0642,-0.0177,-0.0232,-0.0384,-0.0384,-0.0383,-0.0383,-0.0383,-0.0383,0.0844,0.089,0.0926,0.1055,0.1133,0.1264,0.1351,0.1494,0.1632,0.1827,0.1924,0.1978,0.1641,0.0348,-0.0573,-0.0789,-0.1048,-0.1112,-0.121,-0.0945,-0.0906,-0.0869,-0.0948,-0.1248,-0.1249,-0.165,-0.1654,-0.1658]}],[{"header":{"parameterUnit":"m.s-1","parameterCategory":2,"la1":30.2991,"la2":30.254,"lo1":-89.0895,"lo2":-89.0444,"dy":0.0017,"dx":0.0017,"nx":28,"ny":28,"refTime":"2024-04-17T21:00:00:Z","depth":"2","parameterNumber":2,"parameterNumberName":"U-component_of_CURRENTS"},"data":[0,0,0,0,0,0,0,0,0,0,0,0,0,0,0,0,0,0,0,0,0,0,0,0,0,0,0,0,0,0,0,0,0,0,0,0,0,0,0,0,0,0,0,0,0,0,0,0,0,0,0,0,0,0,0,0,0,0,0.1393,0.1393,0,0.1409,0.1409,0.1409,0.1408,0.1408,0.1408,0.1408,0.1378,0.1377,0.1376,0,0,0,0,0,0,0,0,0,0,0,0,0,0.1336,0.1337,0.1393,0.1393,0.1394,0.1409,0.1409,0.1409,0.1408,0.1408,0.1408,0.1408,0.1378,0.1377,0.1376,0,0,0,0,0,0,0,0,0,0,0,0,0,0.1354,0.1337,0.1393,0.1397,0.1398,0.1409,0.1409,0.1409,0.1408,0.1408,0.1408,0.1408,0.1378,0.1377,0.1376,0.1367,0,0,0.1372,0.1371,0,0,0,0,0,0,0,0,0.1353,0.1356,0.1396,0.1397,0.1398,0.1409,0.1378,0.1393,0.1408,0.1401,0.1408,0.1408,0.1386,0.1384,0.1383,0.1365,0.1364,0.1372,0.1371,0.1371,0.137,0,0,0,0,0,0,0,0.1352,0.1355,0.1396,0.1397,0.1398,0.139,0.1393,0.1381,0.139,0.1401,0.1402,0.1409,0.1385,0.1384,0.1382,0.1364,0.1372,0.1371,0.137,0.1369,0.1337,0.1337,0,0,0,0,0,0,0.1358,0.1354,0.1396,0.1397,0.1379,0.1391,0.1394,0.1403,0.1391,0.139,0.1409,0.1409,0.1387,0.1384,0.1381,0.1412,0.1371,0.1369,0.1369,0.1337,0.1337,0.1337,0,0,0,0,0,0,0.1356,0.1361,0.1395,0.1378,0.1382,0.1393,0.1402,0.1403,0.1406,0.1397,0.1395,0.1411,0.1386,0.1383,0.1371,0.1409,0.1369,0.1368,0.1337,0.1337,0.1337,0.1446,0,0,0,0,0,0,0.1355,0.1361,0.1366,0.1379,0.1384,0.1401,0.1403,0.1404,0.1411,0.1411,0.1399,0.1396,0.1386,0.1373,0.137,0.1407,0.1367,0.1337,0.1337,0.1337,0.1443,0.145,0.1456,0,0,0,0,0,0.1352,0.1359,0.1366,0.1372,0.1392,0.1402,0.1403,0.1408,0.1411,0.1411,0.1403,0.1397,0.137,0.1372,0.1368,0.1406,0.1338,0.1337,0.1337,0.144,0.1449,0.1456,0,0,0,0,0,0,0.1332,0.1361,0.1368,0.1382,0.1393,0.1402,0.1406,0.1411,0.1405,0.1407,0.1394,0.1391,0.1396,0.1371,0.1374,0.1389,0.1353,0.1352,0.1432,0.144,0.1446,0.1488,0.1366,0,0,0,0,0,0.1334,0.1349,0.1368,0.1379,0.1387,0.1397,0.1402,0.1409,0.1409,0.1407,0.14,0.1389,0.1391,0.1391,0.1376,0.1385,0.1394,0.1402,0.1408,0.1414,0.1442,0.149,0.1506,0.1336,0.1336,0.1336,0,0,0.1329,0.1347,0.1355,0.1376,0.1386,0.1414,0.14,0.1412,0.1439,0.1404,0.1425,0.1408,0.1393,0.1408,0.1409,0.1396,0.1462,0.1414,0.142,0.1445,0.1492,0.1509,0.1525,0.1336,0.1336,0.1336,0,0,0.1338,0.1344,0.1368,0.1383,0.1407,0.1418,0.1424,0.1437,0.1445,0.1456,0.1448,0.1455,0.1438,0.1455,0.1459,0.1486,0.1491,0.1472,0.1553,0.16,0.1616,0.163,0.1655,0.1671,0.1482,0.1483,0.1483,0,0.1336,0.137,0.1372,0.1405,0.1427,0.1426,0.1462,0.1473,0.1479,0.15,0.147,0.1493,0.1471,0.1532,0.1543,0.151,0.1528,0.1534,0.1615,0.1629,0.1642,0.1664,0.168,0.1488,0.1487,0.1487,0.1486,0,0.1375,0.1402,0.1414,0.1465,0.1483,0.1506,0.1532,0.1547,0.1552,0.1572,0.161,0.1589,0.1615,0.1603,0.1587,0.167,0.165,0.1619,0.1611,0.1667,0.1684,0.17,0.1495,0.1493,0.1492,0.1491,0,0,0.1394,0.1435,0.1448,0.1463,0.1519,0.1527,0.1588,0.1638,0.1671,0.1688,0.1743,0.176,0.1763,0.1766,0.175,0.1788,0.1881,0.1754,0.1754,0.1806,0.1984,0.1955,0.1967,0.1877,0.188,0.1882,0.1959,0,0.1433,0.1477,0.1512,0.1561,0.1578,0.1614,0.1659,0.1704,0.173,0.1773,0.1805,0.1832,0.1823,0.1828,0.1885,0.1873,0.1926,0.1863,0.1897,0.1898,0.189,0.1986,0.1835,0.189,0.1973,0.1975,0.1977,0,0.1479,0.1498,0.1542,0.158,0.1596,0.1635,0.17,0.1744,0.1825,0.1847,0.1928,0.1937,0.2027,0.1974,0.2076,0.2041,0.204,0.2025,0.2027,0.198,0.1898,0.1845,0.1914,0.2001,0.1999,0.1998,0.1996,0,0.1451,0.1522,0.1545,0.1564,0.1614,0.1652,0.1693,0.1769,0.1803,0.1904,0.1935,0.2048,0.2081,0.214,0.2145,0.2122,0.222,0.2175,0.2154,0.2149,0.2018,0.1998,0.2253,0.2253,0.2253,0.2252,0.2252,0,0.1457,0.147,0.153,0.153,0.1564,0.1626,0.1675,0.173,0.1823,0.1885,0.1975,0.2034,0.2124,0.2184,0.2195,0.224,0.2278,0.2207,0.2189,0.2047,0.2029,0.2113,0.2096,0.2255,0.2254,0.2254,0.2253,0,0.1378,0.1426,0.144,0.1509,0.1535,0.1551,0.1641,0.1683,0.1779,0.1869,0.1909,0.2043,0.2154,0.2215,0.2286,0.2285,0.2317,0.2307,0.2129,0.2091,0.2204,0.219,0.233,0.233,0.2331,0.2331,0.2331,0,0.1321,0.1326,0.1394,0.1417,0.1444,0.1493,0.1537,0.1642,0.1705,0.1872,0.1918,0.2052,0.2157,0.2265,0.2276,0.2325,0.2336,0.219,0.213,0.2255,0.2223,0.2209,0.2196,0.1985,0.1983,0.198,0.1978,0,0.1218,0.1255,0.1273,0.1329,0.1378,0.1421,0.1505,0.154,0.1695,0.1781,0.1928,0.2024,0.2154,0.2164,0.2213,0.2205,0.2183,0.2147,0.2344,0.1991,0.1936,0.1902,0.19,0.1958,0.196,0.1962,0.1963,0.1964,0.1148,0.1146,0.1211,0.1256,0.1315,0.1378,0.1402,0.1513,0.1603,0.1752,0.1877,0.1967,0.2007,0.2025,0.2001,0.198,0.2111,0.2029,0.2033,0.204,0.1989,0.1938,0.195,0.1952,0.1953,0.1955,0.1956,0,0.1089,0.1126,0.115,0.1217,0.126,0.1329,0.1412,0.1437,0.154,0.1667,0.1801,0.1673,0.1732,0.1768,0.1721,0.1746,0.1688,0.1685,0.1601,0.1625,0.1645,0.1569,0.142,0.1418,0.1416,0.1414,0,0,0.107,0.109,0.1111,0.1169,0.123,0.1284,0.133,0.1369,0.1434,0.145,0.1481,0.1664,0.1719,0.1521,0.1532,0.1482,0.1528,0.1427,0.1865,0.1789,0.1806,0.1863,0.1776,0,0,0,0,0]},{"header":{"parameterUnit":"m.s-1","parameterCategory":2,"la1":30.2991,"la2":30.254,"lo1":-89.0895,"lo2":-89.0444,"dy":0.0017,"dx":0.0017,"nx":28,"ny":28,"refTime":"2024-04-17T21:00:00:Z","depth":"2","parameterNumber":3,"parameterNumberName":"V-component_of_CURRENTS"},"data":[0,0,0,0,0,0,0,0,0,0,0,0,0,0,0,0,0,0,0,0,0,0,0,0,0,0,0,0,0,0,0,0,0,0,0,0,0,0,0,0,0,0,0,0,0,0,0,0,0,0,0,0,0,0,0,0,0,0,-0.036,-0.0361,0,-0.0415,-0.0416,-0.0416,-0.045,-0.045,-0.045,-0.0451,-0.0504,-0.0505,-0.0506,0,0,0,0,0,0,0,0,0,0,0,0,0,-0.0279,-0.0281,-0.036,-0.0361,-0.0362,-0.0415,-0.0416,-0.0416,-0.045,-0.045,-0.045,-0.0451,-0.0503,-0.0505,-0.0506,0,0,0,0,0,0,0,0,0,0,0,0,0,-0.0321,-0.0281,-0.036,-0.0386,-0.0389,-0.0415,-0.0416,-0.0416,-0.045,-0.045,-0.045,-0.0451,-0.0503,-0.0504,-0.0506,-0.0508,0,0,-0.0511,-0.0512,0,0,0,0,0,0,0,0,-0.0319,-0.0324,-0.0381,-0.0384,-0.0387,-0.0427,-0.0407,-0.0447,-0.0449,-0.0425,-0.0451,-0.0451,-0.0478,-0.0482,-0.049,-0.0511,-0.0513,-0.0512,-0.0513,-0.0513,-0.0514,0,0,0,0,0,0,0,-0.0316,-0.0322,-0.0381,-0.0382,-0.0386,-0.0393,-0.0399,-0.0414,-0.0448,-0.0427,-0.043,-0.0438,-0.048,-0.0488,-0.0491,-0.0514,-0.0512,-0.0513,-0.0514,-0.0515,-0.0541,-0.054,0,0,0,0,0,0,-0.0311,-0.0319,-0.0379,-0.0383,-0.0355,-0.0394,-0.0401,-0.0413,-0.0448,-0.0454,-0.0438,-0.0439,-0.0485,-0.0489,-0.0493,-0.0494,-0.0513,-0.0515,-0.0516,-0.0541,-0.0541,-0.054,0,0,0,0,0,0,-0.031,-0.0316,-0.0377,-0.0353,-0.0361,-0.0395,-0.0408,-0.0414,-0.0424,-0.0456,-0.0462,-0.0442,-0.0485,-0.0491,-0.051,-0.0496,-0.0516,-0.0517,-0.0541,-0.0541,-0.054,-0.0497,0,0,0,0,0,0,-0.0307,-0.0315,-0.0322,-0.0352,-0.0362,-0.0385,-0.0408,-0.0415,-0.0428,-0.0431,-0.0461,-0.0467,-0.0486,-0.0507,-0.0511,-0.0499,-0.0519,-0.0542,-0.0541,-0.054,-0.0499,-0.0495,-0.0492,0,0,0,0,0,-0.0304,-0.0304,-0.0322,-0.0329,-0.0371,-0.0385,-0.0389,-0.0414,-0.0428,-0.0426,-0.0453,-0.0466,-0.0506,-0.0508,-0.0514,-0.0501,-0.0542,-0.0541,-0.0541,-0.05,-0.0496,-0.0492,0,0,0,0,0,0,-0.0267,-0.0309,-0.0329,-0.0342,-0.0361,-0.0391,-0.0391,-0.0411,-0.0431,-0.0435,-0.0467,-0.0474,-0.0485,-0.05,-0.0502,-0.0507,-0.0524,-0.0524,-0.0491,-0.0487,-0.0484,-0.0509,-0.052,0,0,0,0,0,-0.0264,-0.0278,-0.0315,-0.0322,-0.0331,-0.0362,-0.0372,-0.0389,-0.0412,-0.0421,-0.0445,-0.0467,-0.0485,-0.0492,-0.051,-0.0513,-0.0554,-0.0507,-0.0504,-0.0501,-0.0525,-0.0573,-0.0577,-0.0538,-0.0538,-0.0538,0,0,-0.025,-0.0276,-0.0283,-0.0316,-0.0332,-0.0343,-0.0368,-0.0377,-0.0389,-0.0423,-0.044,-0.0458,-0.0484,-0.0491,-0.0495,-0.0501,-0.0528,-0.05,-0.0497,-0.0523,-0.0573,-0.0577,-0.0581,-0.0537,-0.0537,-0.0537,0,0,-0.0229,-0.0252,-0.0259,-0.0274,-0.0301,-0.0321,-0.0323,-0.0353,-0.0368,-0.0382,-0.0414,-0.0434,-0.0447,-0.0476,-0.0488,-0.0478,-0.0511,-0.0466,-0.0465,-0.0511,-0.0515,-0.0519,-0.0558,-0.0566,-0.046,-0.046,-0.0459,0,-0.0211,-0.0237,-0.0259,-0.0267,-0.0283,-0.031,-0.032,-0.0332,-0.0365,-0.0386,-0.0378,-0.0431,-0.0446,-0.048,-0.0473,-0.0472,-0.0501,-0.0476,-0.0508,-0.0513,-0.0518,-0.0557,-0.0566,-0.0457,-0.0458,-0.0458,-0.0458,0,-0.0206,-0.0221,-0.022,-0.0249,-0.0259,-0.0269,-0.0295,-0.0308,-0.0324,-0.0349,-0.0381,-0.0406,-0.0442,-0.0436,-0.0449,-0.0489,-0.0497,-0.05,-0.052,-0.052,-0.056,-0.057,-0.0454,-0.0455,-0.0456,-0.0456,0,0,-0.0202,-0.0215,-0.0221,-0.0234,-0.0258,-0.0269,-0.0279,-0.0316,-0.0336,-0.0352,-0.0384,-0.0409,-0.0431,-0.0449,-0.0467,-0.0503,-0.0548,-0.0511,-0.0515,-0.0553,-0.0646,-0.0615,-0.0624,-0.0551,-0.0553,-0.0555,-0.0653,0,-0.0204,-0.0211,-0.0224,-0.0237,-0.0249,-0.0271,-0.0281,-0.0309,-0.033,-0.0358,-0.0394,-0.0418,-0.0431,-0.0438,-0.0481,-0.0529,-0.0578,-0.0522,-0.0639,-0.0643,-0.0619,-0.0636,-0.0547,-0.0625,-0.0664,-0.0665,-0.0667,0,-0.0225,-0.0228,-0.0233,-0.025,-0.0257,-0.0262,-0.0301,-0.0313,-0.0352,-0.0364,-0.0401,-0.0422,-0.0476,-0.0477,-0.0587,-0.0546,-0.0606,-0.0646,-0.065,-0.0653,-0.0634,-0.0635,-0.0644,-0.0685,-0.0684,-0.0683,-0.0681,0,-0.024,-0.025,-0.0255,-0.0259,-0.0268,-0.0279,-0.0291,-0.0322,-0.0326,-0.0371,-0.0369,-0.0444,-0.0453,-0.055,-0.0618,-0.0606,-0.0738,-0.0729,-0.0771,-0.0769,-0.0737,-0.0728,-0.0838,-0.0838,-0.0838,-0.0838,-0.0837,0,-0.0259,-0.0265,-0.026,-0.0261,-0.0266,-0.0282,-0.029,-0.0309,-0.0326,-0.0312,-0.0372,-0.037,-0.0469,-0.0538,-0.0631,-0.0727,-0.0752,-0.0792,-0.08,-0.0715,-0.0704,-0.0793,-0.0787,-0.0841,-0.084,-0.084,-0.0839,0,-0.0263,-0.0265,-0.0262,-0.0266,-0.0267,-0.0268,-0.0259,-0.0259,-0.0283,-0.0263,-0.0266,-0.0314,-0.0395,-0.0513,-0.0653,-0.0715,-0.0831,-0.0869,-0.0756,-0.0749,-0.0832,-0.0822,-0.0927,-0.0927,-0.0927,-0.0926,-0.0926,0,-0.0255,-0.0257,-0.0247,-0.0234,-0.0229,-0.0227,-0.0216,-0.0232,-0.0211,-0.0214,-0.0192,-0.0262,-0.0265,-0.047,-0.0603,-0.0769,-0.084,-0.0819,-0.0788,-0.0848,-0.0845,-0.0835,-0.0826,-0.0726,-0.0724,-0.0723,-0.0722,0,-0.0237,-0.0234,-0.0221,-0.0191,-0.0176,-0.0148,-0.0127,-0.0098,-0.0093,-0.0059,-0.0018,-0.0023,-0.0184,-0.0289,-0.0521,-0.0632,-0.0781,-0.0795,-0.0906,-0.0705,-0.0663,-0.0659,-0.0655,-0.0709,-0.0711,-0.0712,-0.0712,-0.0713,-0.0213,-0.0192,-0.0173,-0.0139,-0.0111,-0.0055,-0.0005,0.0044,0.0114,0.0226,0.0174,0.0222,0.0017,-0.0191,-0.0418,-0.0653,-0.0675,-0.0745,-0.0747,-0.0752,-0.0699,-0.0658,-0.0694,-0.0695,-0.0696,-0.0697,-0.0697,0,-0.0176,-0.0156,-0.0121,-0.0067,-0.0006,-0.0008,0.0071,0.0154,0.0287,0.0403,0.0489,0.0377,0.0227,-0.0052,-0.0346,-0.0548,-0.0557,-0.0639,-0.0604,-0.0613,-0.0623,-0.0563,-0.0523,-0.0523,-0.0523,-0.0523,0,0,-0.0158,-0.0117,-0.0092,0.002,0.0069,0.0172,0.0236,0.037,0.0478,0.0642,0.071,0.0736,0.0363,0.0181,-0.0125,-0.0318,-0.041,-0.0349,-0.046,-0.0389,-0.0395,-0.0651,-0.0566,0,0,0,0,0]}],[{"header":{"parameterUnit":"m.s-1","parameterCategory":2,"la1":30.2991,"la2":30.254,"lo1":-89.0895,"lo2":-89.0444,"dy":0.0017,"dx":0.0017,"nx":28,"ny":28,"refTime":"2024-04-17T21:00:00:Z","depth":"4","parameterNumber":2,"parameterNumberName":"U-component_of_CURRENTS"},"data":[0,0,0,0,0,0,0,0,0,0,0,0,0,0,0,0,0,0,0,0,0,0,0,0,0,0,0,0,0,0,0,0,0,0,0,0,0,0,0,0,0,0,0,0,0,0,0,0,0,0,0,0,0,0,0,0,0,0,0.0652,0.0653,0,0.0708,0.0709,0.0709,0.077,0.077,0.0771,0.0772,0.0851,0.0853,0.0854,0,0,0,0,0,0,0,0,0,0,0,0,0,0.061,0.0611,0.0652,0.0653,0.0653,0.0708,0.0709,0.071,0.0769,0.077,0.0771,0.0772,0.0851,0.0852,0.0854,0,0,0,0,0,0,0,0,0,0,0,0,0,0.0645,0.0611,0.0652,0.0688,0.0692,0.0708,0.0709,0.071,0.0769,0.077,0.0771,0.0772,0.085,0.0852,0.0854,0.0846,0,0,0.0861,0.0862,0,0,0,0,0,0,0,0,0.0643,0.0647,0.0683,0.0686,0.069,0.0732,0.0723,0.0756,0.0769,0.0742,0.0772,0.0773,0.0812,0.0817,0.0827,0.085,0.0853,0.0861,0.0863,0.0863,0.0864,0,0,0,0,0,0,0,0.064,0.0645,0.0676,0.0683,0.0688,0.0707,0.0713,0.073,0.0771,0.0744,0.0748,0.0752,0.0814,0.0825,0.0829,0.0855,0.0861,0.0863,0.0864,0.0865,0.0965,0.0967,0,0,0,0,0,0,0.0629,0.0642,0.0674,0.0677,0.0667,0.0706,0.0713,0.0718,0.0771,0.0779,0.0751,0.0754,0.082,0.0827,0.0832,0.0915,0.0863,0.0865,0.0867,0.0964,0.0966,0.0967,0,0,0,0,0,0,0.0628,0.0631,0.0672,0.066,0.0666,0.0706,0.0711,0.0719,0.0752,0.0775,0.0785,0.0778,0.0821,0.0829,0.087,0.0916,0.0866,0.0868,0.0962,0.0965,0.0966,0.1024,0,0,0,0,0,0,0.0626,0.063,0.064,0.0659,0.0666,0.0694,0.071,0.0719,0.0751,0.0757,0.0802,0.0809,0.0823,0.0866,0.0872,0.0918,0.087,0.0961,0.0963,0.0966,0.102,0.1028,0.1034,0,0,0,0,0,0.0624,0.0633,0.0641,0.0645,0.0675,0.0695,0.0701,0.0733,0.0751,0.0768,0.0801,0.0809,0.0887,0.0869,0.0875,0.0923,0.096,0.0963,0.0966,0.1017,0.1026,0.1034,0,0,0,0,0,0,0.0623,0.064,0.0649,0.0663,0.0683,0.0705,0.0725,0.0742,0.0781,0.0795,0.0818,0.0828,0.0877,0.0887,0.0867,0.0958,0.0928,0.0932,0.0965,0.0973,0.098,0.0981,0.0872,0,0,0,0,0,0.0623,0.0637,0.0652,0.0667,0.0677,0.0703,0.0719,0.0739,0.0768,0.0788,0.0823,0.086,0.0889,0.0922,0.094,0.0991,0.0984,0.1027,0.1034,0.104,0.1045,0.1084,0.1094,0.0977,0.0977,0.0977,0,0,0.0626,0.0638,0.0646,0.0668,0.0688,0.0708,0.0718,0.0746,0.0778,0.0789,0.0854,0.0875,0.0902,0.0957,0.0983,0.098,0.1064,0.1044,0.1049,0.1051,0.1088,0.1099,0.1109,0.0979,0.0979,0.0979,0,0,0.0631,0.065,0.0661,0.0683,0.0711,0.0725,0.0735,0.0772,0.0807,0.0857,0.0875,0.0922,0.0977,0.1011,0.1032,0.1085,0.1084,0.1103,0.1161,0.1199,0.1209,0.1218,0.1197,0.1203,0.1126,0.1126,0.1126,0,0.0633,0.0654,0.0668,0.069,0.0713,0.0734,0.0756,0.079,0.084,0.087,0.0887,0.0975,0.1002,0.1066,0.1102,0.1103,0.1107,0.1129,0.1209,0.1217,0.1225,0.1202,0.1208,0.1129,0.1129,0.1128,0.1128,0,0.0647,0.0673,0.0686,0.0718,0.0741,0.0768,0.0805,0.0848,0.0892,0.0921,0.0995,0.1038,0.1096,0.1121,0.1138,0.1218,0.1193,0.1197,0.1187,0.1241,0.1212,0.1217,0.1134,0.1133,0.1132,0.1131,0,0,0.062,0.0682,0.0691,0.0711,0.0764,0.0776,0.084,0.0889,0.0932,0.0997,0.106,0.1135,0.1165,0.119,0.1222,0.1275,0.1336,0.1283,0.1283,0.1259,0.139,0.133,0.1329,0.1369,0.1371,0.1373,0.1336,0,0.0629,0.0668,0.0705,0.0747,0.0764,0.082,0.0869,0.0919,0.098,0.1046,0.1106,0.1173,0.1189,0.1242,0.1294,0.1327,0.1359,0.1343,0.1343,0.1342,0.1282,0.1338,0.138,0.134,0.1341,0.1342,0.1343,0,0.0627,0.0653,0.0697,0.0755,0.077,0.0807,0.0888,0.0941,0.1032,0.1085,0.1165,0.1211,0.1302,0.1313,0.1386,0.1383,0.1396,0.1409,0.1408,0.1339,0.1295,0.1283,0.1353,0.1352,0.1351,0.1351,0.135,0,0.0581,0.0646,0.068,0.0704,0.0772,0.0818,0.0868,0.0955,0.1012,0.1128,0.1189,0.1266,0.134,0.1377,0.142,0.1423,0.1474,0.1469,0.1405,0.1398,0.1434,0.1425,0.151,0.1511,0.1511,0.1511,0.1511,0,0.0569,0.0592,0.0666,0.0684,0.0729,0.0794,0.0868,0.0935,0.104,0.11,0.1215,0.1274,0.1376,0.1419,0.1427,0.1428,0.1475,0.1418,0.1402,0.1453,0.1448,0.1435,0.1427,0.1509,0.151,0.151,0.151,0,0.0517,0.0568,0.0602,0.0682,0.071,0.0749,0.087,0.0918,0.1036,0.113,0.118,0.1305,0.1374,0.1422,0.1474,0.1442,0.1439,0.142,0.1437,0.1421,0.1325,0.132,0.1344,0.1342,0.1341,0.1339,0.1338,0,0.0498,0.0508,0.0589,0.0617,0.0664,0.074,0.0785,0.0903,0.0957,0.1126,0.115,0.1281,0.1351,0.1346,0.1408,0.14,0.1398,0.1366,0.1386,0.1334,0.1317,0.1315,0.1312,0.1335,0.1335,0.1334,0.1334,0,0.0454,0.0488,0.052,0.0574,0.0628,0.0682,0.0762,0.0797,0.0931,0.1042,0.1114,0.1183,0.1255,0.1297,0.1315,0.1304,0.1377,0.1348,0.1352,0.137,0.1324,0.1307,0.1307,0.1328,0.1329,0.1329,0.133,0,0.0426,0.0438,0.0484,0.0531,0.0584,0.0617,0.0671,0.0736,0.0804,0.0983,0.0987,0.1123,0.122,0.1245,0.1244,0.1257,0.1254,0.1213,0.1224,0.1231,0.1223,0.1149,0.1095,0,0,0,0,0,0.04,0.0408,0.044,0.0488,0.0535,0.0569,0.0644,0.0699,0.0822,0.0842,0.0921,0.0982,0.1062,0.1115,0.1111,0.1208,0.1253,0.1199,0.1209,0.1295,0.1302,0.1309,0,0,0,0,0,0,0.0382,0.0405,0.0419,0.0438,0.0465,0.0509,0.0557,0.0636,0.0651,0.078,0.0816,0.0924,0.0997,0.1054,0.1093,0.1112,0.11,0.1274,0.1272,0.1291,0.1298,0.1303,0.1313,0,0,0,0,0]},{"header":{"parameterUnit":"m.s-1","parameterCategory":2,"la1":30.2991,"la2":30.254,"lo1":-89.0895,"lo2":-89.0444,"dy":0.0017,"dx":0.0017,"nx":28,"ny":28,"refTime":"2024-04-17T21:00:00:Z","depth":"4","parameterNumber":3,"parameterNumberName":"V-component_of_CURRENTS"},"data":[0,0,0,0,0,0,0,0,0,0,0,0,0,0,0,0,0,0,0,0,0,0,0,0,0,0,0,0,0,0,0,0,0,0,0,0,0,0,0,0,0,0,0,0,0,0,0,0,0,0,0,0,0,0,0,0,0,0,0.027,0.027,0,0.0268,0.0268,0.0268,0.0262,0.0262,0.0262,0.0262,0.0243,0.0242,0.0242,0,0,0,0,0,0,0,0,0,0,0,0,0,0.024,0.0241,0.027,0.027,0.0271,0.0268,0.0268,0.0268,0.0262,0.0262,0.0262,0.0262,0.0243,0.0242,0.0242,0,0,0,0,0,0,0,0,0,0,0,0,0,0.0246,0.0241,0.027,0.0268,0.0268,0.0268,0.0268,0.0268,0.0262,0.0262,0.0262,0.0262,0.0243,0.0242,0.0242,0.0238,0,0,0.024,0.0239,0,0,0,0,0,0,0,0,0.0246,0.0247,0.0268,0.0268,0.0268,0.0266,0.025,0.0257,0.0262,0.0263,0.0262,0.0262,0.025,0.0249,0.0247,0.0237,0.0236,0.0239,0.0239,0.0239,0.0239,0,0,0,0,0,0,0,0.0245,0.0247,0.0268,0.0268,0.0268,0.0257,0.0258,0.0251,0.0255,0.0263,0.0263,0.0264,0.0249,0.0247,0.0246,0.0236,0.0239,0.0239,0.0238,0.0238,0.0215,0.0215,0,0,0,0,0,0,0.025,0.0247,0.0268,0.0268,0.0258,0.0258,0.0259,0.0266,0.0256,0.0255,0.0264,0.0264,0.0249,0.0247,0.0246,0.0218,0.0239,0.0238,0.0238,0.0215,0.0215,0.0215,0,0,0,0,0,0,0.0249,0.0252,0.0268,0.0258,0.0259,0.0259,0.0266,0.0266,0.0266,0.0257,0.0256,0.0266,0.0249,0.0247,0.0245,0.0218,0.0238,0.0237,0.0215,0.0215,0.0215,0.0177,0,0,0,0,0,0,0.0248,0.0252,0.0259,0.0259,0.026,0.0272,0.0267,0.0266,0.0268,0.0267,0.0258,0.0256,0.0248,0.0246,0.0244,0.0218,0.0237,0.0215,0.0215,0.0215,0.0179,0.0176,0.0173,0,0,0,0,0,0.0247,0.0262,0.026,0.0262,0.027,0.0272,0.0272,0.027,0.0268,0.0269,0.0265,0.0256,0.0242,0.0245,0.0243,0.0216,0.0216,0.0215,0.0215,0.018,0.0176,0.0173,0,0,0,0,0,0,0.0254,0.0263,0.026,0.0277,0.0274,0.0271,0.0276,0.0272,0.0269,0.0269,0.0259,0.0257,0.0245,0.0243,0.0247,0.021,0.0225,0.0224,0.0199,0.0196,0.0193,0.0179,0.0236,0,0,0,0,0,0.0259,0.027,0.0271,0.0282,0.0283,0.0278,0.0279,0.0276,0.0274,0.0273,0.0265,0.0256,0.0241,0.023,0.0226,0.0207,0.0197,0.0188,0.0186,0.0183,0.0171,0.0133,0.0125,0.0213,0.0213,0.0213,0,0,0.0264,0.027,0.0276,0.0284,0.0282,0.0271,0.0279,0.0281,0.0266,0.0271,0.0254,0.0252,0.0238,0.0216,0.0209,0.021,0.0157,0.0183,0.018,0.017,0.0132,0.0123,0.0115,0.0213,0.0213,0.0213,0,0,0.0262,0.0285,0.0281,0.0279,0.0277,0.0276,0.0277,0.0273,0.0269,0.0256,0.0251,0.0237,0.022,0.0198,0.0184,0.0166,0.0151,0.0163,0.0124,0.0087,0.0079,0.0072,0.0062,0.0054,0.0152,0.0152,0.0152,0,0.0259,0.0264,0.028,0.0266,0.0268,0.0275,0.0264,0.0255,0.0249,0.0247,0.0249,0.0216,0.0205,0.0164,0.0148,0.0156,0.0141,0.0135,0.0081,0.0073,0.0066,0.0058,0.005,0.015,0.015,0.015,0.0151,0,0.0237,0.0246,0.0247,0.0232,0.0235,0.0236,0.0228,0.0228,0.0227,0.0216,0.0195,0.0178,0.0155,0.0143,0.0131,0.0074,0.0083,0.0087,0.0084,0.0055,0.0049,0.0041,0.0147,0.0148,0.0149,0.0149,0,0,0.0208,0.0228,0.0223,0.024,0.0224,0.0239,0.021,0.0204,0.021,0.0177,0.0169,0.0113,0.0108,0.0091,0.0075,0.003,-0.0032,0.0025,0.0024,0.0006,-0.0104,-0.0098,-0.0105,-0.0047,-0.0049,-0.005,-0.0083,0,0.018,0.0187,0.0183,0.0192,0.021,0.021,0.0202,0.0196,0.019,0.0187,0.0142,0.0129,0.0085,0.0079,0.0017,-0.0005,-0.0058,-0.0022,-0.0065,-0.0066,-0.0065,-0.0117,-0.0056,-0.0089,-0.0091,-0.0093,-0.0094,0,0.0145,0.017,0.0182,0.0233,0.0237,0.0231,0.0257,0.0248,0.0225,0.0218,0.0165,0.0141,0.0062,0.0043,-0.0066,-0.0044,-0.0092,-0.0117,-0.0118,-0.011,-0.0077,-0.0056,-0.0108,-0.0107,-0.0106,-0.0105,-0.0104,0,0.0165,0.0173,0.0205,0.0212,0.0248,0.0254,0.0266,0.0259,0.0275,0.0232,0.0239,0.0139,0.0113,0.0014,-0.0069,-0.0074,-0.0165,-0.0166,-0.0206,-0.0204,-0.0181,-0.0173,-0.0256,-0.0256,-0.0256,-0.0256,-0.0256,0,0.0164,0.0193,0.0226,0.0252,0.0298,0.0301,0.034,0.0332,0.0329,0.0342,0.0257,0.0238,0.0099,0.0029,-0.0061,-0.016,-0.0168,-0.023,-0.0227,-0.0191,-0.0184,-0.0186,-0.0178,-0.0257,-0.0257,-0.0257,-0.0256,0,0.0197,0.0212,0.0262,0.0302,0.0317,0.0354,0.0396,0.0421,0.041,0.0418,0.04,0.0308,0.0197,0.0081,-0.0054,-0.0128,-0.0222,-0.0252,-0.0189,-0.0178,-0.0237,-0.023,-0.0312,-0.0313,-0.0313,-0.0313,-0.0313,0,0.0224,0.0251,0.0305,0.0334,0.0352,0.0405,0.0439,0.0453,0.0465,0.0456,0.0451,0.0359,0.0277,0.0106,-0.0032,-0.0198,-0.0225,-0.0263,-0.0292,-0.0261,-0.025,-0.0242,-0.0235,-0.0314,-0.0314,-0.0314,-0.0314,0,0.0268,0.0277,0.0316,0.0374,0.0413,0.0469,0.0505,0.0526,0.0531,0.0536,0.0483,0.038,0.0267,0.01,-0.0021,-0.0144,-0.0238,-0.0268,-0.0268,-0.0296,-0.0264,-0.0251,-0.0243,-0.0315,-0.0315,-0.0315,-0.0315,0,0.0287,0.0313,0.0347,0.0399,0.0452,0.0492,0.0525,0.0532,0.0553,0.0532,0.0512,0.0392,0.0314,0.0129,0.0015,-0.0106,-0.015,-0.0187,-0.0193,-0.0193,-0.0158,-0.01,-0.0117,0,0,0,0,0,0.0296,0.0318,0.0367,0.0416,0.0468,0.0497,0.0545,0.0565,0.0578,0.0545,0.053,0.0418,0.0236,0.0154,0.003,-0.0008,-0.0176,-0.0157,-0.0222,-0.0322,-0.032,-0.0302,0,0,0,0,0,0,0.0297,0.0336,0.0361,0.0413,0.0447,0.0502,0.0533,0.0546,0.0524,0.0521,0.0421,0.0389,0.0204,0.0302,0.0026,-0.0009,-0.0067,-0.0239,-0.0242,-0.0323,-0.0321,-0.032,-0.0301,0,0,0,0,0]}]]